Flag for U.S.A. Weather past 2 weeks in Nashville, Tennessee, U.S.A.

Now
50 °F

Passing clouds.


Feels Like: 47 °F
Forecast: 26 / 51 °F
Wind: 7 mph from Northeast

Location: Nashville International Airport

Current Time: Dec 21, 2014 at 1:04:11 PM

Latest Report: Dec 21, 2014 at 11:53 AM


Visibility: 10 mi

Pressure: 30.18 "Hg

Humidity: 44%

Dew point: 29 °F

Location of NashvilleLocation

Historic Weather in Nashville — Graph

°F

Nashville temperature yesterday

Maximum temperature yesterday: 46 °F (at 12:53 PM)
Minimum temperature yesterday: 30 °F (at 6:53 AM)
Average temperature yesterday: 37 °F

Past Weeks' High & Low Weather Summary

 TemperatureHumidityPressure
High55 °F (Dec 15, 3:53 PM)100% (Dec 15, 12:53 AM)30.51 "Hg (Dec 15, 12:53 AM)
Low24 °F (Dec 12, 4:53 AM)38% (Dec 12, 2:53 PM)29.82 "Hg (Dec 16, 12:53 AM)
Average40 °F75%30.25 "Hg
* Reported Dec 6 11:53 AM — Dec 21 11:53 AM, Nashville, Weather by CustomWeather, © 2014

Note: Actual official high and low records may vary slightly from our data, if they occured in-between our weather recording intervals... More about our weather records

Advertising

Nashville weather history for previous 24 hours

 ConditionsComfort  
Time TempWeatherWind HumidityBarometerVisibility
11:53 AM
Dec 21
50 °FPassing clouds.7 mph44%30.18 "Hg10 mi
10:53 AM46 °FScattered clouds.5 mph51%30.23 "Hg10 mi
9:53 AM42 °FPartly sunny.No wind71%30.25 "Hg10 mi
8:53 AM34 °FFog.No wind85%30.26 "Hg6 mi
7:53 AM27 °FIce fog.No wind96%30.26 "Hg5 mi
6:53 AM26 °FIce fog.No wind88%30.27 "Hg4 mi
5:53 AM25 °FIce fog.3 mph92%30.26 "Hg6 mi
4:53 AM25 °FIce fog.3 mph96%30.25 "Hg5 mi
3:53 AM27 °FIce fog.No wind92%30.25 "Hg4 mi
2:53 AM28 °FIce fog.No wind89%30.27 "Hg6 mi
1:53 AM29 °FIce fog.No wind89%30.27 "Hg6 mi
12:53 AM30 °FClear.No wind89%30.27 "Hg7 mi
11:53 PM
Dec 20
30 °FClear.No wind89%30.28 "Hg7 mi
10:53 PM30 °FPassing clouds.No wind89%30.29 "Hg8 mi
9:53 PM33 °FPassing clouds.No wind78%30.28 "Hg9 mi
8:53 PM34 °FPassing clouds.No wind76%30.28 "Hg10 mi
7:53 PM37 °FPassing clouds.No wind70%30.27 "Hg10 mi
6:53 PM36 °FPassing clouds.7 mph73%30.28 "Hg10 mi
5:53 PM39 °FPassing clouds.7 mph67%30.27 "Hg10 mi
4:53 PM43 °FPassing clouds.7 mph58%30.26 "Hg10 mi
3:53 PM45 °FPassing clouds.6 mph51%30.24 "Hg10 mi
2:53 PM45 °FPartly sunny.6 mph49%30.23 "Hg10 mi
1:53 PM45 °FOvercast.6 mph49%30.23 "Hg10 mi
Weather by CustomWeather, © 2014

See weather overviewHow to use our weather pages